Current Weather Conditions: station ENRS

sailwx.info

See reports from other nearby stations

no recent reports received from weather station ID ENRS

Tides Pressure Air temp Water temp Dewpoint Dewpoint depression Visibility Wind speed Wind direction Waves Ship positions
date/time (UTC)wind fromknots sea level pressurealtimeterstation pressurevisibilityair tempwater tempwave heightnotes
2016-Dec-08 18:50 300 17 5.4 4.0
2016-Dec-08 18:20 320 13 5.4 3.0
2016-Dec-08 17:50 320 18 5.4 3.0
2016-Dec-08 16:50 320 14 5.4 4.0 Light rain showers.
2016-Dec-08 16:20 310 15 5.4 4.0
2016-Dec-08 15:50 310 19 5.4 4.0
2016-Dec-08 15:20 310 19 5.4 4.0
2016-Dec-08 14:50 310 21 5.4 4.0
2016-Dec-08 12:20 310 18 5.4 4.0
2016-Dec-08 10:50 320 14 5.4 5.0
2016-Dec-08 08:50 330 15 5.4 5.0
2016-Dec-08 07:50 330 13 5.4 5.0
2016-Dec-08 06:50 330 12 5.4 5.0
2016-Dec-08 05:50 350 11 5.4 6.0
2016-Dec-07 18:50 280 6 5.4 5.0
2016-Dec-07 17:50 250 4 5.4 5.0
2016-Dec-07 17:20 260 5 5.4 5.0
2016-Dec-07 16:50 250 6 5.4 5.0
2016-Dec-07 16:20 230 6 5.4 5.0
2016-Dec-07 15:50 230 6 5.4 5.0
2016-Dec-07 15:20 240 8 5.4 6.0
2016-Dec-07 14:50 240 6 5.4 6.0
2016-Dec-07 14:20 240 6 5.4 5.0
2016-Dec-07 13:50 240 8 5.4 5.0
2016-Dec-07 12:50 250 7 5.4 5.0
2016-Dec-07 12:20 280 7 5.4 5.0
2016-Dec-07 11:50 260 8 5.4 5.0
2016-Dec-07 11:20 280 11 5.4 6.0
2016-Dec-07 09:50 260 8 5.4 6.0
2016-Dec-07 09:20 260 9 5.4 6.0
2016-Dec-07 07:50 270 8 5.4 6.0 Rain.
2016-Dec-07 07:20 290 12 5.4 5.0 Rain.
2016-Dec-07 06:20 310 13 5.4 6.0 Rain.
2016-Dec-07 05:50 280 15 5.4 6.0 Rain.